Hourly Weather Ruda

Today, 16 June, Wednesday

Time Temperature Precipitation Wind Pressure Humidity
00:00 +17°C° 0 mm 0 mps 743 mmHg 67%
01:00 +17°C° 0 mm 0 mps 743 mmHg 67%
02:00 +17°C° 0 mm 0 mps 743 mmHg 71%
03:00 +18°C° 0 mm 1 mps 743 mmHg 75%
04:00 +18°C° 0 mm 1 mps 743 mmHg 79%
05:00 +19°C° 0 mm 1 mps 743 mmHg 79%
06:00 +20°C° 0 mm 1 mps 743 mmHg 78%
07:00 +20°C° 0 mm 2 mps 743 mmHg 77%
08:00 +21°C° 0.1 mm 2 mps 744 mmHg 72%
09:00 +24°C° 0.1 mm 1 mps 744 mmHg 67%
10:00 +25°C° 0.1 mm 1 mps 744 mmHg 62%
11:00 +25°C° 0.2 mm 1 mps 744 mmHg 60%
12:00 +26°C° 0.2 mm 2 mps 743 mmHg 58%
13:00 +26°C° 0.2 mm 2 mps 743 mmHg 56%
14:00 +26°C° 0 mm 2 mps 743 mmHg 56%
15:00 +26°C° 0 mm 2 mps 743 mmHg 56%
16:00 +26°C° 0 mm 2 mps 743 mmHg 56%
17:00 +25°C° 0 mm 2 mps 743 mmHg 62%
18:00 +24°C° 0 mm 3 mps 743 mmHg 68%
19:00 +22°C° 0 mm 3 mps 743 mmHg 75%
20:00 +21°C° 0 mm 3 mps 743 mmHg 79%
21:00 +20°C° 0 mm 3 mps 743 mmHg 83%
22:00 +18°C° 0 mm 3 mps 744 mmHg 88%
23:00 +18°C° 0 mm 3 mps 744 mmHg 89%

Tomorrow, 17 June, Thursday

Time Temperature Precipitation Wind Pressure Humidity
00:00 +17°C° 0 mm 3 mps 744 mmHg 91%
01:00 +17°C° 0 mm 3 mps 744 mmHg 93%
02:00 +17°C° 0 mm 3 mps 744 mmHg 93%
03:00 +16°C° 0 mm 3 mps 743 mmHg 94%
04:00 +16°C° 0 mm 3 mps 743 mmHg 94%
05:00 +18°C° 0 mm 3 mps 744 mmHg 88%
06:00 +19°C° 0 mm 4 mps 744 mmHg 81%
07:00 +21°C° 0 mm 4 mps 744 mmHg 74%
08:00 +22°C° 0 mm 4 mps 744 mmHg 68%
09:00 +25°C° 0 mm 4 mps 744 mmHg 63%
10:00 +26°C° 0 mm 4 mps 745 mmHg 57%
11:00 +27°C° 0 mm 4 mps 744 mmHg 54%
12:00 +28°C° 0 mm 4 mps 744 mmHg 51%
13:00 +29°C° 0 mm 4 mps 744 mmHg 48%
14:00 +29°C° 0 mm 4 mps 744 mmHg 48%
15:00 +28°C° 0 mm 4 mps 744 mmHg 48%
16:00 +28°C° 0 mm 5 mps 743 mmHg 47%
17:00 +27°C° 0 mm 4 mps 744 mmHg 54%
18:00 +25°C° 0 mm 4 mps 744 mmHg 60%
19:00 +23°C° 0 mm 4 mps 744 mmHg 66%
20:00 +21°C° 0 mm 4 mps 744 mmHg 69%
21:00 +20°C° 0 mm 4 mps 744 mmHg 72%
22:00 +19°C° 0 mm 3 mps 744 mmHg 75%
23:00 +18°C° 0 mm 3 mps 744 mmHg 78%

Day after tomorrow, 18 June, Friday

Time Temperature Precipitation Wind Pressure Humidity
00:00 +17°C° 0 mm 3 mps 744 mmHg 81%
01:00 +17°C° 0 mm 3 mps 743 mmHg 85%
02:00 +17°C° 0 mm 3 mps 743 mmHg 87%
03:00 +16°C° 0 mm 3 mps 743 mmHg 89%
04:00 +16°C° 0 mm 3 mps 743 mmHg 91%
05:00 +18°C° 0 mm 3 mps 744 mmHg 83%
06:00 +20°C° 0 mm 3 mps 744 mmHg 76%
07:00 +22°C° 0 mm 4 mps 744 mmHg 69%
08:00 +25°C° 0 mm 4 mps 744 mmHg 63%
09:00 +27°C° 0 mm 4 mps 744 mmHg 58%
10:00 +28°C° 0 mm 4 mps 744 mmHg 52%
11:00 +29°C° 0 mm 4 mps 743 mmHg 49%
12:00 +30°C° 0 mm 4 mps 743 mmHg 45%
13:00 +32°C° 0 mm 4 mps 743 mmHg 42%
14:00 +32°C° 0 mm 4 mps 743 mmHg 43%
15:00 +32°C° 0 mm 4 mps 743 mmHg 45%
16:00 +32°C° 0 mm 4 mps 743 mmHg 47%
17:00 +29°C° 0 mm 4 mps 743 mmHg 54%
18:00 +28°C° 0 mm 4 mps 743 mmHg 62%
19:00 +26°C° 0 mm 4 mps 742 mmHg 69%
20:00 +25°C° 0 mm 4 mps 743 mmHg 73%
21:00 +23°C° 0 mm 4 mps 743 mmHg 77%
22:00 +22°C° 0 mm 3 mps 743 mmHg 81%
23:00 +21°C° 0 mm 3 mps 743 mmHg 84%

19 June, Saturday

Time Temperature Precipitation Wind Pressure Humidity
00:00 +20°C° 0 mm 3 mps 743 mmHg 87%
01:00 +20°C° 0 mm 3 mps 743 mmHg 90%
02:00 +19°C° 0 mm 3 mps 743 mmHg 91%
03:00 +19°C° 0 mm 3 mps 742 mmHg 92%
04:00 +19°C° 0 mm 3 mps 742 mmHg 92%
05:00 +20°C° 0 mm 3 mps 742 mmHg 85%
06:00 +22°C° 0 mm 3 mps 743 mmHg 78%
07:00 +25°C° 0 mm 3 mps 743 mmHg 71%
08:00 +27°C° 0 mm 3 mps 743 mmHg 66%
09:00 +28°C° 0 mm 3 mps 743 mmHg 60%
10:00 +30°C° 0 mm 2 mps 743 mmHg 54%
11:00 +31°C° 0 mm 3 mps 743 mmHg 51%
12:00 +33°C° 0 mm 3 mps 742 mmHg 48%
13:00 +33°C° 0 mm 3 mps 742 mmHg 45%
14:00 +33°C° 0 mm 4 mps 742 mmHg 46%
15:00 +33°C° 0 mm 4 mps 742 mmHg 47%
16:00 +33°C° 0 mm 4 mps 742 mmHg 47%
17:00 +30°C° 0 mm 5 mps 742 mmHg 54%
18:00 +28°C° 0 mm 5 mps 742 mmHg 60%
19:00 +27°C° 0 mm 5 mps 742 mmHg 66%
20:00 +26°C° 0 mm 5 mps 742 mmHg 68%
21:00 +23°C° 0 mm 5 mps 742 mmHg 71%
22:00 +22°C° 0 mm 4 mps 742 mmHg 74%
23:00 +21°C° 0 mm 4 mps 742 mmHg 75%

20 June, Sunday

Time Temperature Precipitation Wind Pressure Humidity
00:00 +21°C° 0 mm 4 mps 742 mmHg 76%
01:00 +20°C° 0 mm 3 mps 742 mmHg 77%
02:00 +19°C° 0 mm 4 mps 742 mmHg 80%
03:00 +19°C° 0 mm 4 mps 742 mmHg 82%
04:00 +18°C° 0 mm 4 mps 742 mmHg 85%
05:00 +20°C° 0 mm 4 mps 742 mmHg 79%
06:00 +21°C° 0 mm 4 mps 742 mmHg 73%
07:00 +23°C° 0 mm 4 mps 742 mmHg 67%
08:00 +25°C° 0 mm 4 mps 742 mmHg 61%
09:00 +27°C° 0 mm 4 mps 742 mmHg 55%
10:00 +29°C° 0 mm 4 mps 742 mmHg 49%
11:00 +29°C° 0 mm 4 mps 741 mmHg 46%
12:00 +30°C° 0 mm 4 mps 741 mmHg 44%
13:00 +32°C° 0 mm 4 mps 741 mmHg 42%
14:00 +32°C° 0 mm 4 mps 741 mmHg 43%
15:00 +32°C° 0 mm 5 mps 740 mmHg 45%
16:00 +32°C° 0 mm 5 mps 740 mmHg 47%
17:00 +29°C° 0 mm 4 mps 740 mmHg 54%
18:00 +28°C° 0 mm 4 mps 740 mmHg 60%
19:00 +27°C° 0 mm 4 mps 740 mmHg 67%
20:00 +26°C° 0 mm 4 mps 740 mmHg 71%
21:00 +25°C° 0 mm 4 mps 740 mmHg 74%
22:00 +23°C° 0 mm 4 mps 740 mmHg 77%
23:00 +22°C° 0 mm 4 mps 740 mmHg 82%

21 June, Monday

Time Temperature Precipitation Wind Pressure Humidity
00:00 +21°C° 0 mm 4 mps 740 mmHg 86%
01:00 +20°C° 0 mm 3 mps 739 mmHg 91%
02:00 +20°C° 0 mm 3 mps 739 mmHg 91%
03:00 +19°C° 0 mm 3 mps 739 mmHg 91%
04:00 +19°C° 0 mm 3 mps 739 mmHg 92%
05:00 +21°C° 0 mm 3 mps 739 mmHg 84%
06:00 +24°C° 0 mm 3 mps 739 mmHg 76%
07:00 +26°C° 0 mm 3 mps 739 mmHg 69%
08:00 +27°C° 0 mm 3 mps 739 mmHg 63%
09:00 +29°C° 0 mm 3 mps 739 mmHg 58%
10:00 +30°C° 0 mm 3 mps 739 mmHg 52%
11:00 +32°C° 0 mm 4 mps 738 mmHg 48%
12:00 +33°C° 0 mm 4 mps 738 mmHg 43%
13:00 +34°C° 0 mm 4 mps 738 mmHg 39%
14:00 +34°C° 0 mm 5 mps 738 mmHg 40%
15:00 +33°C° 0 mm 5 mps 737 mmHg 41%
16:00 +33°C° 0 mm 5 mps 737 mmHg 42%
17:00 +32°C° 0 mm 5 mps 737 mmHg 49%
18:00 +29°C° 0 mm 6 mps 737 mmHg 55%
19:00 +28°C° 0 mm 6 mps 736 mmHg 62%
20:00 +26°C° 0 mm 6 mps 736 mmHg 64%
21:00 +24°C° 0 mm 6 mps 736 mmHg 66%
22:00 +23°C° 0 mm 6 mps 735 mmHg 68%
23:00 +23°C° 0 mm 5 mps 735 mmHg 72%
Show more